TimePST,TemperatureF,Dew PointF,Humidity,Sea Level PressureIn,VisibilityMPH,Wind Direction,Wind SpeedMPH,Gust SpeedMPH,PrecipitationIn,Events,Conditions,WindDirDegrees,DateUTC
12:53 AM,42.1,37.9,85,30.16,10.0,ESE,3.5,-,N/A,,Overcast,110,2012-11-25 08:53:00
1:53 AM,43.0,39.0,86,30.16,10.0,Calm,Calm,-,N/A,,Overcast,0,2012-11-25 09:53:00
2:53 AM,43.0,39.0,86,30.14,10.0,Calm,Calm,-,N/A,,Overcast,0,2012-11-25 10:53:00
3:53 AM,42.1,39.0,89,30.14,10.0,Calm,Calm,-,N/A,,Overcast,0,2012-11-25 11:53:00
4:53 AM,43.0,39.0,86,30.13,10.0,Calm,Calm,-,N/A,,Overcast,0,2012-11-25 12:53:00
5:53 AM,41.0,39.0,93,30.14,7.0,Calm,Calm,-,N/A,,Overcast,0,2012-11-25 13:53:00
6:53 AM,41.0,37.9,89,30.15,10.0,Calm,Calm,-,N/A,,Overcast,0,2012-11-25 14:53:00
7:53 AM,41.0,39.0,93,30.16,9.0,Calm,Calm,-,N/A,,Overcast,0,2012-11-25 15:53:00
8:53 AM,44.1,41.0,89,30.16,10.0,Calm,Calm,-,N/A,,Overcast,0,2012-11-25 16:53:00
9:53 AM,48.0,42.1,80,30.15,10.0,Calm,Calm,-,N/A,,Clear,0,2012-11-25 17:53:00
10:53 AM,51.1,43.0,74,30.14,10.0,Calm,Calm,-,N/A,,Clear,0,2012-11-25 18:53:00
11:53 AM,54.0,43.0,66,30.10,10.0,Calm,Calm,-,N/A,,Clear,0,2012-11-25 19:53:00
12:53 PM,57.0,42.1,57,30.07,10.0,Calm,Calm,-,N/A,,Clear,0,2012-11-25 20:53:00
1:53 PM,57.9,39.0,49,30.06,10.0,Calm,Calm,-,N/A,,Clear,0,2012-11-25 21:53:00
2:53 PM,59.0,39.0,48,30.04,10.0,NE,4.6,-,N/A,,Clear,40,2012-11-25 22:53:00
3:53 PM,57.0,39.0,51,30.04,10.0,Calm,Calm,-,N/A,,Clear,0,2012-11-25 23:53:00
4:53 PM,50.0,39.0,66,30.05,10.0,Calm,Calm,-,N/A,,Clear,0,2012-11-26 00:53:00
5:53 PM,44.1,36.0,73,30.08,10.0,SE,4.6,-,N/A,,Clear,140,2012-11-26 01:53:00
6:53 PM,43.0,37.0,80,30.08,10.0,Calm,Calm,-,N/A,,Clear,0,2012-11-26 02:53:00
7:53 PM,39.0,35.1,86,30.09,10.0,East,4.6,-,N/A,,Clear,100,2012-11-26 03:53:00
8:53 PM,35.1,32.0,89,30.10,10.0,Variable,3.5,-,N/A,,Clear,0,2012-11-26 04:53:00
9:53 PM,37.0,32.0,82,30.10,10.0,North,3.5,-,N/A,,Clear,360,2012-11-26 05:53:00
10:53 PM,35.1,30.9,85,30.10,10.0,NE,3.5,-,N/A,,Clear,40,2012-11-26 06:53:00
11:53 PM,33.1,30.0,89,30.10,10.0,Calm,Calm,-,N/A,,Clear,0,2012-11-26 07:53:00